Location: Meinert
(37.9441°N, 122.0275°W)
Time: 18:31:14
(UTC+00:00)

Cosmos 1766 - Pass Details

Date: 18 April 2024
Orbit: 487 x 504 km, 82.5° (Epoch: 23 May)

Event Time Altitude Azimuth Distance (km) Brightness Sun altitude
Rises 12:40:25 0° 337° (NNW) 2,565 6.7 -9.7°
Reaches altitude 10° 12:42:50 10° 322° (NW) 1,678 5.6 -9.2°
Maximum altitude 12:45:43 22° 270° (W) 1,106 4.3 -8.7°
Drops below altitude 10° 12:48:35 10° 218° (SW) 1,668 5.3 -8.2°
Enters shadow 12:50:18 - 206° (SSW) 2,285 6.0 -7.9°
